Location: Brno
(49.2000°N, 16.6330°E)
Time: 03:51:14
(UTC+02:00)

ISS - Visible Passes

Search period start: 23 July 2014 00:00
Search period end: 02 August 2014 00:00
Orbit: 413 x 420 km, 51.6° (Epoch: 22 July)

Date Brightness Start Highest point End Pass type
(mag) Time Alt. Az. Time Alt. Az. Time Alt. Az.
23 Jul -0.8 02:04:12 14° ESE 02:04:12 14° ESE 02:05:05 10° E visible
23 Jul -3.3 03:37:05 21° WSW 03:39:13 71° SSE 03:42:35 10° ENE visible
24 Jul -3.0 02:50:15 44° S 02:50:45 49° SSE 02:54:02 10° ENE visible
24 Jul -2.8 04:24:09 10° W 04:27:30 60° N 04:30:51 10° ENE visible
25 Jul -1.8 02:03:23 27° ESE 02:03:23 27° ESE 02:05:25 10° E visible
25 Jul -3.1 03:36:15 15° W 03:38:56 71° NNW 03:42:19 10° ENE visible
26 Jul -0.5 01:16:29 11° E 01:16:29 11° E 01:16:40 10° E visible
26 Jul -3.3 02:49:22 42° WSW 02:50:24 90° NNW 02:53:47 10° ENE visible
26 Jul -2.5 04:24:01 10° WNW 04:27:20 54° N 04:30:39 10° E visible
27 Jul -2.9 02:02:28 54° E 02:02:28 54° E 02:05:15 10° ENE visible
27 Jul -2.6 03:35:25 10° W 03:38:45 55° N 03:42:04 10° ENE visible
28 Jul -1.1 01:15:33 19° E 01:15:33 19° E 01:16:41 10° ENE visible
28 Jul -2.8 02:48:25 25° W 02:50:09 61° N 02:53:30 10° ENE visible
28 Jul -2.7 04:23:48 10° WNW 04:27:09 62° N 04:30:29 10° E visible
29 Jul -3.2 02:01:30 73° NNW 02:01:35 74° NNW 02:04:58 10° ENE visible
29 Jul -2.6 03:35:14 10° WNW 03:38:34 55° N 03:41:53 10° E visible
30 Jul -1.7 01:14:36 30° ENE 01:14:36 30° ENE 01:16:26 10° ENE visible
30 Jul -2.5 02:47:29 16° WNW 02:49:58 54° N 02:53:17 10° ENE visible
30 Jul -3.2 04:23:30 10° WNW 04:26:53 90° NNE 04:30:16 10° ESE visible
31 Jul -0.5 00:27:44 11° ENE 00:27:44 11° ENE 00:27:53 10° ENE visible
31 Jul -2.6 02:00:37 43° NW 02:01:22 56° N 02:04:41 10° ENE visible
31 Jul -3.0 03:34:58 10° WNW 03:38:20 71° NNE 03:41:42 10° E visible
01 Aug -2.1 01:13:50 38° NE 01:13:50 38° NE 01:16:07 10° ENE visible
01 Aug -2.7 02:46:43 12° WNW 02:49:45 60° N 02:53:06 10° E visible
01 Aug -3.1 04:23:14 10° WNW 04:26:30 49° SSW 04:29:46 10° SE visible
